Pine Ridge, SD

4:27 AM MDT on April 28, 2017 (GMT -0600)
Pine Ridge

Weather History for KIEN - December, 2012

Change the Weather History Date:

Sunday, December 16, 2012

  Actual Average Record
Temperature  
Mean Temperature 32 °F 22 °F  
Max Temperature 44 °F 35 °F 55 °F (2002)
Min Temperature 20 °F 9 °F -7 °F (2000)
Degree Days  
Heating Degree Days 33 43  
Month to date heating degree days 510 658  
Since 1 July heating degree days 2098 2348  
Cooling Degree Days 0 0  
Month to date cooling degree days 0 0  
Year to date cooling degree days 1103 717  
Moisture  
Dew Point 20 °F    
Average Humidity 61    
Maximum Humidity 92    
Minimum Humidity 30    
Precipitation  
Precipitation T in 0.01 in 0.01 in (2015)
Month to date precipitation 0.08 0.18  
Year to date precipitation 11.11 17.35  
Sea Level Pressure  
Sea Level Pressure 29.74 in    
Wind  
Wind Speed 7 mph (SW)    
Max Wind Speed 21 mph    
Max Gust Speed 29 mph    
Visibility 10 miles    
Events Snow    
T = Trace of Precipitation, MM = Missing Value Source: NWS Daily Summary

Daily Weather History Graph

Daily Weather History Graph

Search for Another Location

Airport or City:

Trip Planner

Search our weather history database for the weather conditions in past years. The results will help you decide how hot, cold, wet, or windy it might be!

Date:

Astronomy

Dec. 16, 2012 Rise Set
Actual Time 7:15 AM MST 4:16 PM MST
Civil Twilight 6:43 AM MST 4:48 PM MST
Nautical Twilight 6:07 AM MST 5:24 PM MST
Astronomical Twilight 5:32 AM MST 5:59 PM MST
Moon 9:45 AM MST (12/16) 8:38 PM MST (12/16)
Length of Visible Light 10h 05m
Length of Day
9h 00m
Waxing Crescent, 16% of the Moon is Illuminated
Dec 16
Waxing Crescent
Dec 19
First Quarter
Dec 28
Full
Jan 4
Last Quarter
Jan 11
New

Hourly Weather History & Observations

Time (MST) Temp. Windchill Dew Point Humidity Pressure Visibility Wind Dir Wind Speed Gust Speed Precip Events Conditions
12:52 AM 25.0 °F - 19.9 °F 81% 29.80 in 10.0 mi Calm Calm - N/A   Overcast
1:52 AM 25.0 °F - 19.9 °F 81% 29.79 in 10.0 mi Calm Calm - N/A   Overcast
2:52 AM 26.1 °F - 21.0 °F 81% 29.80 in 10.0 mi Calm Calm - N/A   Overcast
3:48 AM 26.6 °F - 21.2 °F 80% 29.70 in 4.0 mi Calm Calm - 0.00 in Snow Light Snow
3:59 AM 26.6 °F - 23.0 °F 86% 29.70 in 7.0 mi Calm Calm - 0.00 in Snow Light Snow
4:52 AM 27.0 °F 20.5 °F 23.0 °F 85% 29.77 in 10.0 mi East 5.8 mph - 0.00 in   Overcast
5:52 AM 28.9 °F 22.8 °F 23.0 °F 78% 29.76 in 10.0 mi East 5.8 mph - N/A   Overcast
6:52 AM 30.0 °F 26.5 °F 19.0 °F 64% 29.75 in 10.0 mi SSE 3.5 mph - N/A   Overcast
7:52 AM 30.0 °F 25.2 °F 21.9 °F 72% 29.74 in 10.0 mi SW 4.6 mph - N/A   Overcast
8:52 AM 30.9 °F 22.8 °F 23.0 °F 72% 29.73 in 10.0 mi South 9.2 mph - N/A   Overcast
9:52 AM 36.0 °F 31.1 °F 24.1 °F 62% 29.73 in 10.0 mi SSW 5.8 mph - N/A   Mostly Cloudy
10:52 AM 39.9 °F 33.4 °F 25.0 °F 55% 29.70 in 10.0 mi SSW 10.4 mph - N/A   Clear
11:52 AM 42.1 °F 35.2 °F 23.0 °F 47% 29.66 in 10.0 mi West 12.7 mph 18.4 mph N/A   Scattered Clouds
12:52 PM 43.0 °F 35.1 °F 16.0 °F 34% 29.64 in 10.0 mi WSW 17.3 mph 23.0 mph N/A   Partly Cloudy
1:52 PM 43.0 °F 35.1 °F 15.1 °F 32% 29.63 in 10.0 mi WSW 17.3 mph 24.2 mph N/A   Clear
2:52 PM 43.0 °F 34.8 °F 14.0 °F 31% 29.63 in 10.0 mi West 18.4 mph 25.3 mph N/A   Clear
3:52 PM 37.9 °F 31.5 °F 15.1 °F 39% 29.66 in 10.0 mi West 9.2 mph - N/A   Clear
4:52 PM 34.0 °F 25.5 °F 18.0 °F 52% 29.71 in 10.0 mi NW 11.5 mph - N/A   Clear
5:52 PM 32.0 °F 25.6 °F 21.9 °F 66% 29.76 in 10.0 mi NNW 6.9 mph - N/A   Overcast
6:52 PM 30.9 °F - 24.1 °F 76% 29.78 in 10.0 mi Calm Calm - N/A   Overcast
7:52 PM 25.0 °F 18.1 °F 19.9 °F 81% 29.81 in 10.0 mi SSW 5.8 mph - N/A   Partly Cloudy
8:52 PM 19.9 °F - 18.0 °F 92% 29.81 in 10.0 mi Calm Calm - N/A   Clear
9:52 PM 21.9 °F 17.2 °F 19.0 °F 89% 29.81 in 10.0 mi SW 3.5 mph - N/A   Clear
10:52 PM 23.0 °F 15.8 °F 19.0 °F 85% 29.80 in 10.0 mi WSW 5.8 mph - N/A   Clear
11:52 PM 25.0 °F 20.7 °F 19.9 °F 81% 29.78 in 10.0 mi SW 3.5 mph - N/A   Mostly Cloudy